CW0641 Weather Reports


Display with metric or nautical units.
time (UTC)temp
F
wind
direction
speed
MPH
gust
MPH
rain 1hr
in
rain 24hr
in
rain mn
in
humidity
%
barometer
mb
20260507032406 48 341 0.0 1.0 0.00 0.00 0.00 89 1015.8
20260507031859 48 341 0.0 1.0 0.00 0.00 0.00 89 1015.7
20260507030859 48 341 0.0 1.0 0.00 0.00 0.00 89 1015.8
20260507030359 48 341 0.0 1.0 0.00 0.00 0.00 89 1015.7
20260507025901 48 340 0.0 0.0 0.00 0.00 0.00 89 1015.5
20260507025347 48 340 0.0 1.0 0.00 0.00 0.00 89 1015.4
20260507024844 48 340 0.0 1.0 0.00 0.00 0.00 89 1015.5
20260507024331 48 340 0.0 1.0 0.00 0.00 0.00 89 1015.4
20260507023823 48 340 0.0 1.0 0.00 0.00 0.00 89 1015.3
20260507023316 48 340 0.0 0.0 0.00 0.00 0.00 89 1015.3
20260507022812 48 340 0.0 0.0 0.00 0.00 0.00 88 1015.3
20260507021808 48 340 0.0 0.0 0.00 0.00 0.00 89 1015.3
20260507021309 48 340 0.0 0.0 0.00 0.00 0.00 88 1015.3
20260507020804 48 340 0.0 1.0 0.00 0.00 0.00 89 1015.3
20260507020304 48 340 0.0 1.0 0.00 0.00 0.00 89 1015.3
20260507015306 49 340 0.0 1.0 0.00 0.00 0.00 89 1015.3
20260507014802 49 340 0.0 1.0 0.00 0.00 0.00 88 1015.3
20260507014300 49 340 0.0 1.0 0.00 0.00 0.00 89 1015.3
20260507013802 49 340 0.0 0.0 0.00 0.00 0.00 89 1015.3
20260507013258 49 340 0.0 0.0 0.00 0.00 0.00 88 1015.3
20260507012751 49 340 0.0 0.0 0.00 0.00 0.00 89 1015.2
20260507012255 49 340 0.0 1.0 0.00 0.00 0.00 89 1015.2
20260507011751 49 340 0.0 1.0 0.00 0.00 0.00 89 1015.3
20260507010225 49 340 0.0 1.0 0.00 0.00 0.00 89 1015.2
20260507005727 49 340 0.0 1.0 0.00 0.00 0.00 89 1015.3
20260507005227 49 340 0.0 0.0 0.00 0.00 0.00 89 1015.3
20260507004722 49 340 0.0 1.0 0.00 0.00 0.00 88 1015.3
20260507004207 49 340 0.0 1.0 0.00 0.00 0.00 89 1015.3
20260507003726 49 340 0.0 0.0 0.00 0.00 0.00 89 1015.3
20260507003206 49 340 0.0 0.0 0.00 0.00 0.00 89 1015.3
20260507002207 49 340 0.0 2.0 0.00 0.00 0.00 89 1015.4
20260507001207 49 340 0.0 2.0 0.00 0.00 0.00 89 1015.4
20260507000715 49 340 0.0 1.0 0.00 0.00 0.00 89 1015.4
20260507000207 50 340 0.0 1.0 0.00 0.00 0.00 89 1015.4
20260506235716 50 340 0.0 1.0 0.00 0.00 0.00 89 1015.5
20260506235205 50 340 0.0 1.0 0.00 0.00 0.00 89 1015.5
20260506234713 50 340 0.0 1.0 0.00 0.00 0.00 89 1015.7
20260506234145 50 340 0.0 1.0 0.00 0.00 0.00 89 1015.7
20260506232119 50 340 1.0 3.0 0.00 0.00 0.00 89 1015.9
20260506231701 50 340 1.0 4.0 0.00 0.00 0.00 89 1015.8
20260506230703 51 340 1.0 4.0 0.00 0.00 0.00 89 1015.9
20260506230110 51 340 1.0 5.0 0.00 0.00 0.00 89 1015.8
20260506225702 51 342 2.0 7.0 0.00 0.00 0.00 89 1015.8
20260506225104 51 5 3.0 9.0 0.00 0.00 0.00 88 1015.7
20260506224655 51 333 4.0 9.0 0.00 0.00 0.00 88 1015.8
20260506224108 51 343 3.0 6.0 0.00 0.00 0.00 89 1015.8
20260506223656 51 347 2.0 6.0 0.00 0.00 0.00 89 1015.8
20260506222654 51 342 1.0 4.0 0.00 0.00 0.00 88 1016.0
20260506221102 51 329 2.0 5.0 0.00 0.00 0.00 88 1016.1
20260506220648 51 332 2.0 4.0 0.00 0.00 0.00 88 1016.1
20260506215646 51 303 1.0 3.0 0.00 0.00 0.00 88 1016.2
20260506215040 51 302 1.0 3.0 0.00 0.00 0.00 88 1016.2
20260506214641 51 302 1.0 3.0 0.00 0.00 0.00 88 1016.3
20260506214019 51 302 1.0 4.0 0.00 0.00 0.00 88 1016.4
20260506213642 52 304 2.0 4.0 0.00 0.00 0.00 88 1016.4
20260506212632 52 325 2.0 4.0 0.00 0.00 0.00 87 1016.5
20260506211636 52 310 1.0 4.0 0.00 0.00 0.00 87 1016.5
20260506210959 52 315 2.0 4.0 0.00 0.00 0.00 87 1016.5
20260506210635 52 309 2.0 4.0 0.00 0.00 0.00 87 1016.5
20260506205959 52 297 2.0 5.0 0.00 0.00 0.00 87 1016.5
20260506205629 52 308 1.0 5.0 0.00 0.00 0.00 87 1016.5
20260506204959 52 290 1.0 4.0 0.00 0.00 0.00 87 1016.5
20260506203626 52 314 2.0 5.0 0.00 0.00 0.00 86 1016.5
20260506201922 53 340 3.0 10.0 0.00 0.00 0.00 86 1016.4
20260506201625 53 285 4.0 10.0 0.00 0.00 0.00 86 1016.4
20260506200919 53 345 5.0 10.0 0.00 0.00 0.00 85 1016.4
20260506200618 53 355 5.0 9.0 0.00 0.00 0.00 85 1016.4
20260506195917 53 332 5.0 9.0 0.00 0.00 0.00 85 1016.3
20260506195619 53 355 5.0 9.0 0.00 0.00 0.00 85 1016.3
20260506194917 53 17 6.0 10.0 0.00 0.00 0.00 85 1016.4
20260506194621 53 17 5.0 10.0 0.00 0.00 0.00 85 1016.4
20260506193918 53 355 4.0 9.0 0.00 0.00 0.00 85 1016.4
20260506193614 53 0 3.0 9.0 0.00 0.00 0.00 85 1016.4
20260506192916 53 313 4.0 12.0 0.00 0.00 0.00 84 1016.4
20260506192614 53 26 6.0 12.0 0.00 0.00 0.00 84 1016.4
20260506191916 53 327 7.0 12.0 0.00 0.00 0.00 84 1016.4
20260506191615 54 323 7.0 13.0 0.00 0.00 0.00 84 1016.4
20260506190914 54 355 7.0 13.0 0.00 0.00 0.00 84 1016.4
20260506190615 54 25 6.0 11.0 0.00 0.00 0.00 83 1016.5
20260506185909 54 10 4.0 9.0 0.00 0.00 0.00 83 1016.6
20260506184910 54 343 3.0 8.0 0.00 0.00 0.00 82 1016.5
20260506184607 54 0 2.0 8.0 0.00 0.00 0.00 82 1016.5
20260506183911 54 333 4.0 9.0 0.00 0.00 0.00 82 1016.5
20260506183608 54 330 6.0 11.0 0.00 0.00 0.00 82 1016.4
20260506182605 54 324 6.0 10.0 0.00 0.00 0.00 81 1016.6
20260506181909 55 338 4.0 10.0 0.00 0.00 0.00 81 1016.5
20260506181600 55 344 4.0 10.0 0.00 0.00 0.00 81 1016.4
20260506180909 55 296 3.0 10.0 0.00 0.00 0.00 80 1016.4
20260506175557 55 335 3.0 8.0 0.00 0.00 0.00 79 1016.2
20260506174911 55 345 4.0 9.0 0.00 0.00 0.00 79 1016.2
20260506174554 55 5 5.0 9.0 0.00 0.00 0.00 79 1016.1
20260506173909 55 343 5.0 10.0 0.00 0.00 0.00 79 1016.2
20260506172912 55 317 5.0 10.0 0.00 0.00 0.00 78 1016.0
20260506171551 56 311 5.0 11.0 0.00 0.00 0.00 77 1015.8
20260506170905 56 322 5.0 10.0 0.00 0.00 0.00 76 1015.8
20260506165906 56 336 5.0 12.0 0.00 0.00 0.00 75 1015.7
20260506165547 56 311 6.0 12.0 0.00 0.00 0.00 75 1015.5
20260506164908 56 0 6.0 14.0 0.00 0.00 0.00 75 1015.4
20260506164548 57 342 5.0 14.0 0.00 0.00 0.00 74 1015.3
20260506163903 57 315 5.0 9.0 0.00 0.00 0.00 74 1015.3
20260506163546 57 355 5.0 11.0 0.00 0.00 0.00 74 1015.2
20260506162902 57 313 5.0 11.0 0.00 0.00 0.00 73 1015.3
20260506161907 58 338 6.0 11.0 0.00 0.00 0.00 73 1015.1
20260506161538 58 351 7.0 12.0 0.00 0.00 0.00 73 1015.1
20260506160900 58 15 7.0 12.0 0.00 0.00 0.00 72 1015.0
20260506160536 58 340 7.0 14.0 0.00 0.00 0.00 72 1014.9
20260506155903 58 45 8.0 14.0 0.00 0.00 0.00 72 1014.9
20260506155535 59 342 7.0 12.0 0.00 0.00 0.00 71 1014.9
20260506154902 59 13 6.0 12.0 0.00 0.00 0.00 71 1014.9
20260506154532 59 9 7.0 13.0 0.00 0.00 0.00 71 1014.9
20260506153857 59 355 8.0 14.0 0.00 0.00 0.00 70 1014.9
20260506153532 60 28 8.0 14.0 0.00 0.00 0.00 69 1014.9
20260506152859 60 340 8.0 13.0 0.00 0.00 0.00 68 1014.9
20260506152531 61 336 8.0 13.0 0.00 0.00 0.00 68 1014.8
20260506151856 61 355 7.0 14.0 0.00 0.00 0.00 67 1014.8
20260506151527 62 0 7.0 14.0 0.00 0.00 0.00 66 1014.8
20260506150858 62 317 7.0 14.0 0.00 0.00 0.00 65 1014.9
20260506150527 62 10 6.0 14.0 0.00 0.00 0.00 65 1014.8
20260506145847 62 324 6.0 14.0 0.00 0.00 0.00 65 1014.8
20260506145545 62 322 5.0 14.0 0.00 0.00 0.00 64 1014.8
20260506144849 62 33 4.0 11.0 0.00 0.00 0.00 65 1014.7
20260506142849 63 0 6.0 12.0 0.00 0.00 0.00 63 1014.8
20260506142520 62 37 6.0 13.0 0.00 0.00 0.00 63 1014.8
20260506141517 63 5 6.0 14.0 0.00 0.00 0.00 63 1014.8
20260506140849 63 344 5.0 14.0 0.00 0.00 0.00 62 1014.8
20260506135848 63 355 6.0 13.0 0.00 0.00 0.00 62 1014.8
20260506135514 63 288 7.0 13.0 0.00 0.00 0.00 63 1014.9
20260506134846 63 327 6.0 11.0 0.00 0.00 0.00 63 1014.8
20260506134511 63 287 6.0 11.0 0.00 0.00 0.00 64 1014.9
20260506133846 63 324 7.0 13.0 0.00 0.00 0.00 64 1014.9
20260506132846 62 351 6.0 13.0 0.00 0.00 0.00 66 1014.9
20260506132511 62 327 6.0 12.0 0.00 0.00 0.00 68 1015.0
20260506131849 61 355 7.0 13.0 0.00 0.00 0.00 68 1015.1
20260506130846 61 266 6.0 15.0 0.00 0.00 0.00 69 1015.2
20260506130505 61 342 6.0 11.0 0.00 0.00 0.00 71 1015.2
20260506125847 60 288 6.0 11.0 0.00 0.00 0.00 69 1015.3
20260506125501 61 322 6.0 11.0 0.00 0.00 0.00 69 1015.3
20260506124848 61 333 6.0 11.0 0.00 0.00 0.00 68 1015.4
20260506124459 61 242 6.0 11.0 0.00 0.00 0.00 67 1015.7
20260506123846 62 282 6.0 11.0 0.00 0.00 0.00 66 1015.7
20260506123455 62 327 6.0 13.0 0.00 0.00 0.00 65 1015.4
20260506122839 63 293 6.0 13.0 0.00 0.00 0.00 64 1015.7
20260506121456 64 346 4.0 12.0 0.00 0.00 0.00 63 1015.8
20260506120839 64 257 5.0 11.0 0.00 0.00 0.00 65 1015.8
20260506120451 63 0 5.0 6.0 0.00 0.00 0.00 66 1015.8
20260506115841 62 290 6.0 10.0 0.00 0.00 0.00 66 1015.8
20260506115451 63 290 6.0 11.0 0.00 0.00 0.00 65 1015.8
20260506114829 63 265 6.0 12.0 0.00 0.00 0.00 64 1015.8
20260506113833 63 279 6.0 11.0 0.00 0.00 0.00 66 1015.8
20260506113445 62 246 5.0 12.0 0.00 0.00 0.00 66 1015.9
20260506112832 62 329 5.0 12.0 0.00 0.00 0.00 67 1015.9
20260506110834 61 322 6.0 12.0 0.00 0.00 0.00 69 1016.1
20260506110445 61 340 6.0 12.0 0.00 0.00 0.00 69 1016.0
20260506105828 61 297 5.0 10.0 0.00 0.00 0.00 70 1016.0
20260506105440 60 300 6.0 12.0 0.00 0.00 0.00 70 1016.0
20260506104818 60 327 7.0 12.0 0.00 0.00 0.00 70 1016.0
20260506104436 60 290 6.0 12.0 0.00 0.00 0.00 69 1016.0
20260506103435 60 318 7.0 12.0 0.00 0.00 0.00 70 1016.1
20260506102817 60 296 6.0 10.0 0.00 0.00 0.00 72 1016.2
20260506102436 60 298 5.0 11.0 0.00 0.00 0.00 72 1016.0
20260506101816 59 241 6.0 12.0 0.00 0.00 0.00 72 1016.2
20260506101431 59 294 6.0 12.0 0.00 0.00 0.00 73 1016.3
20260506100817 59 304 5.0 9.0 0.00 0.00 0.00 74 1016.4
20260506100428 59 227 5.0 9.0 0.00 0.00 0.00 73 1016.3
20260506095819 58 249 6.0 11.0 0.00 0.00 0.00 73 1016.4
20260506095428 58 268 6.0 11.0 0.00 0.00 0.00 73 1016.4
20260506094812 58 279 5.0 12.0 0.00 0.00 0.00 73 1016.4
20260506093813 58 331 4.0 10.0 0.00 0.00 0.00 76 1016.5
20260506093425 58 242 3.0 8.0 0.00 0.00 0.00 76 1016.5
20260506092809 58 263 4.0 8.0 0.00 0.00 0.00 77 1016.5
20260506092422 58 286 4.0 8.0 0.00 0.00 0.00 76 1016.5
20260506090419 57 286 5.0 9.0 0.00 0.00 0.00 75 1016.5
20260506085811 58 295 6.0 8.0 0.00 0.00 0.00 75 1016.6
20260506085418 58 299 3.0 5.0 0.00 0.00 0.00 75 1016.6
20260506084805 58 299 4.0 8.0 0.00 0.00 0.00 76 1016.6
20260506084417 57 267 3.0 9.0 0.00 0.00 0.00 77 1016.7
20260506083806 57 297 4.0 9.0 0.00 0.00 0.00 76 1016.7
20260506082806 57 279 5.0 10.0 0.00 0.00 0.00 77 1016.6
20260506081802 57 287 5.0 10.0 0.00 0.00 0.00 76 1016.7
20260506080800 57 331 3.0 9.0 0.00 0.00 0.00 76 1016.6
20260506080407 57 287 3.0 8.0 0.00 0.00 0.00 76 1016.5
20260506072744 57 275 5.0 10.0 0.00 0.00 0.00 76 1016.4
20260506071742 57 278 4.0 8.0 0.00 0.00 0.00 76 1016.5
20260506071355 57 296 3.0 7.0 0.00 0.00 0.00 75 1016.4
20260506070744 57 294 2.0 7.0 0.00 0.00 0.00 75 1016.4
20260506070353 57 283 2.0 5.0 0.00 0.00 0.00 75 1016.4
20260506062351 56 284 4.0 9.0 0.00 0.00 0.00 76 1016.1
20260506061742 57 263 4.0 11.0 0.00 0.00 0.00 76 1016.2
20260506060736 57 263 4.0 4.0 0.00 0.00 0.00 76 1016.1
20260506060346 57 263 4.0 9.0 0.00 0.00 0.00 77 1016.0
20260506051336 55 306 3.0 7.0 0.00 0.00 0.00 84 1015.8
20260506050725 54 323 3.0 8.0 0.00 0.00 0.00 84 1015.7
20260506044725 54 267 2.0 7.0 0.00 0.00 0.00 85 1015.3
20260506044330 54 319 2.0 8.0 0.00 0.00 0.00 85 1015.3
20260506043724 54 331 4.0 9.0 0.00 0.00 0.00 85 1015.3
20260506043331 54 316 5.0 11.0 0.00 0.00 0.00 85 1015.2
20260506041328 54 288 2.0 5.0 0.00 0.00 0.00 86 1015.0
20260506040710 54 239 2.0 5.0 0.00 0.00 0.00 87 1014.9
20260506040328 54 232 1.0 3.0 0.00 0.00 0.00 87 1014.9
20260506035711 53 208 1.0 5.0 0.00 0.00 0.00 87 1014.9
20260506035323 53 208 2.0 5.0 0.00 0.00 0.00 87 1014.9
20260506034709 53 209 1.0 5.0 0.00 0.00 0.00 88 1014.8
20260506034321 53 223 1.0 3.0 0.00 0.00 0.00 88 1014.7
20260506033705 53 229 1.0 4.0 0.00 0.00 0.00 88 1014.8
20260506032709 53 238 1.0 3.0 0.00 0.00 0.00 88 1014.6